StationID,Date,MaxTemp,MinTemp,Precipitation,Snowfall,SnowDepth
"USC00501451","1996-08-01",71.06,44.96,66.00,0.00,
"USC00501451","1996-08-02",71.06,44.96,99.00,0.00,0.00
"USC00501451","1996-08-03",64.04,35.06,20.00,0.00,0.00
"USC00501451","1996-08-04",68.00,32.00,25.00,0.00,0.00
"USC00501451","1996-08-05",64.04,35.06,64.00,0.00,0.00
"USC00501451","1996-08-06",,,0.00,0.00,0.00
"USC00501451","1996-08-07",69.08,35.96,0.00,0.00,0.00
"USC00501451","1996-08-08",73.94,33.98,0.00,0.00,0.00
"USC00501451","1996-08-09",77.00,35.06,3.00,0.00,0.00
"USC00501451","1996-08-10",60.98,48.02,155.00,0.00,0.00
"USC00501451","1996-08-11",59.00,48.02,48.00,0.00,0.00
"USC00501451","1996-08-12",66.02,44.06,10.00,0.00,0.00
"USC00501451","1996-08-13",71.96,48.02,0.00,0.00,0.00
"USC00501451","1996-08-14",73.94,53.06,0.00,0.00,0.00
"USC00501451","1996-08-15",69.98,37.94,0.00,0.00,0.00
"USC00501451","1996-08-16",66.92,39.92,0.00,0.00,0.00
"USC00501451","1996-08-17",66.92,46.04,23.00,0.00,0.00
"USC00501451","1996-08-18",71.96,37.04,0.00,0.00,0.00
"USC00501451","1996-08-19",73.04,35.96,0.00,0.00,0.00
"USC00501451","1996-08-20",69.08,39.02,0.00,0.00,0.00
"USC00501451","1996-08-21",64.94,46.04,0.00,0.00,0.00
"USC00501451","1996-08-22",71.96,46.04,10.00,0.00,0.00
"USC00501451","1996-08-23",68.00,42.08,15.00,0.00,0.00
"USC00501451","1996-08-24",64.04,42.98,0.00,0.00,0.00
"USC00501451","1996-08-25",69.08,44.06,0.00,0.00,0.00
"USC00501451","1996-08-26",64.04,44.06,99.00,0.00,0.00
"USC00501451","1996-08-27",59.00,30.02,25.00,0.00,0.00
"USC00501451","1996-08-28",64.94,24.98,0.00,0.00,0.00
"USC00501451","1996-08-29",64.04,24.98,0.00,0.00,0.00
"USC00501451","1996-08-30",62.96,39.92,20.00,0.00,0.00
"USC00501451","1996-08-31",59.00,44.06,61.00,0.00,0.00
"USC00501451","1996-09-01",59.00,32.00,15.00,0.00,0.00
"USC00501451","1996-09-02",66.02,28.94,0.00,0.00,0.00
"USC00501451","1996-09-03",71.96,28.04,0.00,0.00,0.00
"USC00501451","1996-09-04",71.06,28.94,0.00,0.00,0.00
"USC00501451","1996-09-05",71.96,30.02,0.00,0.00,0.00
"USC00501451","1996-09-06",71.96,28.04,0.00,0.00,0.00
"USC00501451","1996-09-07",68.00,26.96,0.00,0.00,0.00
"USC00501451","1996-09-08",66.92,26.06,0.00,0.00,0.00
"USC00501451","1996-09-09",64.04,26.06,0.00,0.00,0.00
"USC00501451","1996-09-10",60.08,28.94,23.00,0.00,0.00
"USC00501451","1996-09-11",60.98,28.04,8.00,0.00,0.00
"USC00501451","1996-09-12",60.08,30.92,94.00,0.00,0.00
"USC00501451","1996-09-13",50.00,41.00,53.00,0.00,0.00
"USC00501451","1996-09-14",64.04,39.02,33.00,0.00,0.00
"USC00501451","1996-09-15",64.04,37.94,10.00,0.00,0.00
"USC00501451","1996-09-16",44.96,35.06,51.00,0.00,0.00
"USC00501451","1996-09-17",53.96,44.06,0.00,0.00,0.00
"USC00501451","1996-09-18",55.04,39.92,10.00,0.00,0.00
"USC00501451","1996-09-19",53.06,35.06,0.00,0.00,0.00
"USC00501451","1996-09-20",57.02,26.96,0.00,0.00,0.00
"USC00501451","1996-09-21",51.98,26.96,122.00,0.00,0.00
"USC00501451","1996-09-22",44.96,24.08,43.00,0.00,0.00
"USC00501451","1996-09-23",39.02,21.92,0.00,0.00,0.00
"USC00501451","1996-09-24",48.02,21.92,0.00,0.00,0.00
"USC00501451","1996-09-25",50.00,30.02,130.00,0.00,0.00
"USC00501451","1996-09-26",48.92,35.96,86.00,0.00,0.00
"USC00501451","1996-09-27",59.00,28.04,20.00,0.00,0.00
"USC00501451","1996-09-28",42.08,28.94,30.00,0.00,0.00
"USC00501451","1996-09-29",48.92,12.02,0.00,0.00,0.00
"USC00501451","1996-09-30",48.92,17.06,0.00,0.00,0.00
"USC00501451","1996-10-01",33.98,28.94,56.00,3.00,
"USC00501451","1996-10-02",46.04,14.00,0.00,0.00,0.00
"USC00501451","1996-10-03",50.00,14.00,0.00,0.00,0.00
"USC00501451","1996-10-04",41.00,12.92,0.00,0.00,0.00
"USC00501451","1996-10-05",53.96,12.02,0.00,0.00,0.00
"USC00501451","1996-10-06",51.08,12.02,0.00,0.00,0.00
"USC00501451","1996-10-07",53.06,14.00,0.00,0.00,0.00
"USC00501451","1996-10-08",50.00,12.02,0.00,0.00,0.00
"USC00501451","1996-10-09",51.08,28.94,0.00,0.00,0.00
"USC00501451","1996-10-10",42.08,26.06,97.00,84.00,76.00
"USC00501451","1996-10-11",37.04,15.98,0.00,0.00,
"USC00501451","1996-10-12",33.98,19.04,0.00,0.00,
"USC00501451","1996-10-13",32.00,24.08,198.00,274.00,279.00
"USC00501451","1996-10-14",28.04,6.08,74.00,102.00,381.00
"USC00501451","1996-10-15",28.94,6.98,5.00,30.00,406.00
"USC00501451","1996-10-16",28.94,1.04,0.00,0.00,
"USC00501451","1996-10-17",28.04,-2.92,0.00,0.00,
"USC00501451","1996-10-18",26.96,-14.98,0.00,0.00,
"USC00501451","1996-10-19",24.08,-18.04,0.00,0.00,
"USC00501451","1996-10-20",26.96,-18.04,0.00,0.00,
"USC00501451","1996-10-21",26.96,-16.96,0.00,0.00,
"USC00501451","1996-10-22",28.04,-16.96,0.00,0.00,
"USC00501451","1996-10-23",26.06,-16.06,0.00,0.00,
"USC00501451","1996-10-24",26.06,-16.06,0.00,0.00,
"USC00501451","1996-10-25",26.06,-20.92,0.00,0.00,
"USC00501451","1996-10-26",19.94,-25.96,0.00,0.00,
"USC00501451","1996-10-27",17.96,-23.08,0.00,0.00,
"USC00501451","1996-10-28",19.94,-20.92,0.00,0.00,
"USC00501451","1996-10-29",24.98,1.94,0.00,0.00,
"USC00501451","1996-10-30",26.06,15.08,208.00,229.00,635.00
"USC00501451","1996-10-31",28.94,24.08,460.00,76.00,457.00
"USC00501451","1996-11-01",37.94,26.06,,,
"USC00501451","1996-11-02",37.94,26.06,0.00,0.00,
"USC00501451","1996-11-03",28.04,3.92,58.00,51.00,508.00
"USC00501451","1996-11-04",28.94,21.02,175.00,229.00,686.00
"USC00501451","1996-11-05",30.92,24.98,104.00,102.00,711.00
"USC00501451","1996-11-06",30.92,26.96,53.00,51.00,762.00
"USC00501451","1996-11-07",33.08,19.04,0.00,0.00,
"USC00501451","1996-11-08",24.98,15.08,0.00,0.00,711.00
"USC00501451","1996-11-09",12.02,-18.04,0.00,0.00,
"USC00501451","1996-11-10",6.08,-16.96,0.00,0.00,
"USC00501451","1996-11-11",17.96,-11.02,0.00,0.00,686.00
"USC00501451","1996-11-12",24.98,3.02,0.00,0.00,660.00
"USC00501451","1996-11-13",24.08,3.92,0.00,0.00,
"USC00501451","1996-11-14",28.04,-2.92,0.00,0.00,635.00
"USC00501451","1996-11-15",15.98,-7.96,0.00,0.00,
"USC00501451","1996-11-16",12.02,-14.08,0.00,0.00,610.00
"USC00501451","1996-11-17",6.98,-16.06,0.00,0.00,
"USC00501451","1996-11-18",3.92,-18.04,0.00,0.00,
"USC00501451","1996-11-19",1.94,-20.92,0.00,0.00,
"USC00501451","1996-11-20",8.96,-18.04,0.00,0.00,
"USC00501451","1996-11-21",10.94,-7.06,0.00,0.00,
"USC00501451","1996-11-22",10.94,-11.02,0.00,0.00,
"USC00501451","1996-11-23",10.04,-16.96,0.00,0.00,
"USC00501451","1996-11-24",-2.02,-23.08,0.00,0.00,
"USC00501451","1996-11-25",-7.96,-23.98,0.00,0.00,584.00
"USC00501451","1996-11-26",1.94,-23.08,0.00,0.00,
"USC00501451","1996-11-27",15.98,1.94,0.00,0.00,
"USC00501451","1996-11-28",23.00,8.96,71.00,102.00,686.00
"USC00501451","1996-11-29",24.98,14.00,20.00,51.00,737.00
"USC00501451","1996-11-30",24.98,10.04,15.00,25.00,737.00
"USC00501451","1996-12-01",14.00,-11.02,5.00,3.00,762.00
"USC00501451","1996-12-02",-0.04,-23.98,0.00,0.00,737.00
"USC00501451","1996-12-03",1.94,-5.98,,0.00,737.00
"USC00501451","1996-12-04",12.92,-11.02,0.00,0.00,
"USC00501451","1996-12-05",19.94,6.08,10.00,25.00,813.00
"USC00501451","1996-12-06",8.06,-31.00,0.00,0.00,
"USC00501451","1996-12-07",-2.02,-5.08,0.00,0.00,
"USC00501451","1996-12-08",8.96,-5.08,30.00,38.00,787.00
"USC00501451","1996-12-09",12.02,8.06,0.00,0.00,762.00
"USC00501451","1996-12-10",12.02,-18.04,0.00,0.00,762.00
"USC00501451","1996-12-11",5.00,-18.04,0.00,0.00,737.00
"USC00501451","1996-12-12",8.96,-11.02,0.00,0.00,
"USC00501451","1996-12-13",1.94,-14.98,0.00,0.00,737.00
"USC00501451","1996-12-14",-5.08,-18.94,0.00,0.00,711.00
"USC00501451","1996-12-15",12.92,-7.06,,0.00,711.00
"USC00501451","1996-12-16",19.04,12.02,,0.00,711.00
"USC00501451","1996-12-17",26.06,17.06,15.00,13.00,737.00
"USC00501451","1996-12-18",28.94,24.98,71.00,76.00,787.00
"USC00501451","1996-12-19",28.94,21.92,0.00,0.00,762.00
"USC00501451","1996-12-20",28.94,21.92,0.00,0.00,762.00
"USC00501451","1996-12-21",26.06,-2.02,0.00,0.00,737.00
"USC00501451","1996-12-22",24.98,-20.02,0.00,0.00,
"USC00501451","1996-12-23",-14.98,-20.92,0.00,0.00,
"USC00501451","1996-12-24",-5.08,-18.94,0.00,0.00,
"USC00501451","1996-12-25",-5.98,-16.06,0.00,0.00,737.00
"USC00501451","1996-12-26",-7.96,-18.94,0.00,0.00,
"USC00501451","1996-12-27",-7.96,-16.96,0.00,0.00,711.00
"USC00501451","1996-12-28",-9.04,-23.08,0.00,0.00,
"USC00501451","1996-12-29",-11.92,-23.08,0.00,0.00,
"USC00501451","1996-12-30",-11.92,-23.98,0.00,0.00,711.00
"USC00501451","1996-12-31",-16.06,-36.04,0.00,0.00,
"USC00501451","1997-01-01",-27.94,-41.98,0.00,0.00,
"USC00501451","1997-01-02",-27.04,-40.00,0.00,0.00,711.00
"USC00501451","1997-01-03",-4.00,-11.02,0.00,0.00,
"USC00501451","1997-01-04",-5.08,-27.04,0.00,0.00,
"USC00501451","1997-01-05",-9.94,-32.98,0.00,0.00,711.00
"USC00501451","1997-01-06",-13.00,-36.04,0.00,0.00,
"USC00501451","1997-01-07",-27.04,-43.06,0.00,0.00,
"USC00501451","1997-01-08",-32.08,-45.94,0.00,0.00,
"USC00501451","1997-01-09",10.94,-34.96,0.00,0.00,
"USC00501451","1997-01-10",21.02,10.94,0.00,0.00,
"USC00501451","1997-01-11",26.06,8.96,0.00,0.00,
"USC00501451","1997-01-12",15.08,-5.98,0.00,0.00,
"USC00501451","1997-01-13",30.92,3.02,,0.00,
"USC00501451","1997-01-14",32.00,8.06,0.00,0.00,
"USC00501451","1997-01-15",24.08,8.96,0.00,0.00,
"USC00501451","1997-01-16",24.08,15.98,0.00,0.00,
"USC00501451","1997-01-17",21.92,-2.02,0.00,0.00,
"USC00501451","1997-01-18",21.02,15.98,0.00,0.00,
"USC00501451","1997-01-19",24.08,12.92,,0.00,
"USC00501451","1997-01-20",21.92,21.92,,0.00,
"USC00501451","1997-01-21",26.06,17.96,,0.00,
"USC00501451","1997-01-22",19.04,-5.98,0.00,0.00,
"USC00501451","1997-01-23",3.02,-22.00,0.00,0.00,
"USC00501451","1997-01-24",-5.08,-25.96,0.00,0.00,
"USC00501451","1997-01-25",3.92,-23.08,0.00,0.00,
"USC00501451","1997-01-26",-2.92,-25.06,0.00,0.00,711.00
"USC00501451","1997-01-27",-2.02,-27.94,0.00,0.00,
"USC00501451","1997-01-28",3.02,-27.94,0.00,0.00,
"USC00501451","1997-01-29",17.06,-7.06,,0.00,
"USC00501451","1997-01-30",26.06,15.08,53.00,76.00,787.00
"USC00501451","1997-01-31",,17.96,20.00,38.00,813.00
"USC00501451","1997-02-01",30.02,1.94,0.00,0.00,787.00
"USC00501451","1997-02-02",26.06,6.08,0.00,0.00,787.00
"USC00501451","1997-02-03",30.92,17.96,38.00,51.00,838.00
"USC00501451","1997-02-04",33.08,12.02,0.00,0.00,813.00
"USC00501451","1997-02-05",33.98,12.02,0.00,0.00,
"USC00501451","1997-02-06",30.92,19.94,0.00,0.00,
"USC00501451","1997-02-07",32.00,19.94,5.00,0.00,813.00
"USC00501451","1997-02-08",35.06,17.96,36.00,13.00,787.00
"USC00501451","1997-02-09",35.96,12.92,0.00,0.00,
"USC00501451","1997-02-10",30.92,19.04,0.00,0.00,
"USC00501451","1997-02-11",30.92,19.04,0.00,0.00,
"USC00501451","1997-02-12",32.00,15.08,0.00,0.00,787.00
"USC00501451","1997-02-13",33.08,12.02,0.00,0.00,
"USC00501451","1997-02-14",28.94,1.94,0.00,0.00,
"USC00501451","1997-02-15",28.94,-0.94,0.00,0.00,
"USC00501451","1997-02-16",33.08,-0.94,0.00,0.00,762.00
"USC00501451","1997-02-17",32.00,19.04,41.00,51.00,813.00
"USC00501451","1997-02-18",33.98,19.94,3.00,0.00,813.00
"USC00501451","1997-02-19",39.02,3.92,0.00,0.00,813.00
"USC00501451","1997-02-20",28.94,21.92,0.00,0.00,
"USC00501451","1997-02-21",37.94,15.08,0.00,0.00,787.00
"USC00501451","1997-02-22",39.92,21.92,10.00,5.00,787.00
"USC00501451","1997-02-23",42.98,35.06,0.00,0.00,762.00
"USC00501451","1997-02-24",41.00,24.08,30.00,13.00,762.00
"USC00501451","1997-02-25",35.06,28.94,30.00,89.00,838.00
"USC00501451","1997-02-26",37.94,21.02,0.00,0.00,813.00
"USC00501451","1997-02-27",33.08,21.92,61.00,76.00,889.00
"USC00501451","1997-02-28",35.06,21.92,20.00,13.00,889.00
"USC00501451","1997-03-01",35.06,-0.94,0.00,0.00,864.00
"USC00501451","1997-03-02",33.08,-14.08,0.00,0.00,864.00
"USC00501451","1997-03-03",28.04,-22.00,0.00,0.00,864.00
"USC00501451","1997-03-04",26.96,-20.02,0.00,0.00,864.00
"USC00501451","1997-03-05",26.06,-7.06,0.00,0.00,838.00
"USC00501451","1997-03-06",33.98,14.00,0.00,0.00,838.00
"USC00501451","1997-03-07",37.04,17.96,0.00,0.00,838.00
"USC00501451","1997-03-08",35.06,24.98,30.00,89.00,940.00
"USC00501451","1997-03-09",35.96,-2.02,0.00,0.00,914.00
"USC00501451","1997-03-10",37.94,-0.04,0.00,0.00,864.00
"USC00501451","1997-03-11",30.92,-4.00,0.00,0.00,813.00
"USC00501451","1997-03-12",37.94,-4.00,0.00,0.00,813.00
"USC00501451","1997-03-13",44.96,-0.94,0.00,0.00,813.00
"USC00501451","1997-03-14",37.94,-7.06,0.00,0.00,813.00
"USC00501451","1997-03-15",41.00,-5.98,0.00,0.00,787.00
"USC00501451","1997-03-16",39.02,-0.04,0.00,0.00,787.00
"USC00501451","1997-03-17",28.04,-18.04,0.00,0.00,762.00
"USC00501451","1997-03-18",19.04,-11.02,0.00,0.00,
"USC00501451","1997-03-19",35.96,14.00,13.00,25.00,787.00
"USC00501451","1997-03-20",42.08,14.00,0.00,0.00,762.00
"USC00501451","1997-03-21",39.02,14.00,0.00,0.00,762.00
"USC00501451","1997-03-22",44.06,19.94,0.00,0.00,737.00
"USC00501451","1997-03-23",35.96,17.96,0.00,0.00,
"USC00501451","1997-03-24",30.92,-9.04,0.00,0.00,711.00
"USC00501451","1997-03-25",33.98,-11.02,0.00,0.00,711.00
"USC00501451","1997-03-26",39.92,-9.04,0.00,0.00,711.00
"USC00501451","1997-03-27",35.96,-2.02,0.00,0.00,711.00
"USC00501451","1997-03-28",42.08,-2.02,0.00,0.00,711.00
"USC00501451","1997-03-29",44.06,-2.02,0.00,0.00,686.00
"USC00501451","1997-03-30",42.08,-0.94,0.00,0.00,686.00
"USC00501451","1997-03-31",42.08,3.92,0.00,0.00,660.00
"USC00501451","1997-04-01",33.08,8.96,25.00,25.00,686.00
"USC00501451","1997-04-02",41.00,26.06,0.00,0.00,660.00
"USC00501451","1997-04-03",44.96,8.96,0.00,0.00,660.00
"USC00501451","1997-04-04",42.08,12.02,0.00,0.00,660.00
"USC00501451","1997-04-05",44.06,17.96,0.00,0.00,610.00
"USC00501451","1997-04-06",44.96,28.94,0.00,0.00,610.00
"USC00501451","1997-04-07",51.98,30.02,0.00,0.00,584.00
"USC00501451","1997-04-08",51.98,28.04,0.00,0.00,559.00
"USC00501451","1997-04-09",53.06,19.04,0.00,0.00,508.00
"USC00501451","1997-04-10",53.96,12.02,0.00,0.00,483.00
"USC00501451","1997-04-11",55.94,17.06,0.00,0.00,457.00
"USC00501451","1997-04-12",57.02,17.96,0.00,0.00,432.00
"USC00501451","1997-04-13",53.06,28.94,5.00,,483.00
"USC00501451","1997-04-14",51.08,32.00,0.00,0.00,406.00
"USC00501451","1997-04-15",42.08,24.08,0.00,0.00,406.00
"USC00501451","1997-04-16",42.98,26.96,0.00,0.00,381.00
"USC00501451","1997-04-17",39.92,10.94,0.00,0.00,381.00
"USC00501451","1997-04-18",42.08,10.94,0.00,0.00,381.00
"USC00501451","1997-04-19",44.06,12.02,0.00,0.00,381.00
"USC00501451","1997-04-20",44.06,10.94,0.00,0.00,381.00
"USC00501451","1997-04-21",46.04,10.94,0.00,0.00,381.00
"USC00501451","1997-04-22",48.92,10.94,0.00,0.00,356.00
"USC00501451","1997-04-23",53.06,21.02,0.00,0.00,330.00
"USC00501451","1997-04-24",51.98,26.96,0.00,0.00,305.00
"USC00501451","1997-04-25",55.94,33.08,0.00,0.00,254.00
"USC00501451","1997-04-26",57.92,32.00,0.00,0.00,229.00
"USC00501451","1997-04-27",59.00,33.98,3.00,0.00,152.00
"USC00501451","1997-04-28",53.96,24.98,0.00,0.00,102.00
"USC00501451","1997-04-29",57.92,28.94,0.00,0.00,0.00
"USC00501451","1997-04-30",55.94,30.02,8.00,0.00,0.00
"USC00501451","1997-05-01",55.94,24.08,0.00,0.00,0.00
"USC00501451","1997-05-02",57.92,24.98,0.00,0.00,0.00
"USC00501451","1997-05-03",59.00,26.06,0.00,0.00,0.00
"USC00501451","1997-05-04",64.04,24.98,0.00,0.00,0.00
"USC00501451","1997-05-05",64.94,24.98,0.00,0.00,0.00
"USC00501451","1997-05-06",68.00,24.98,0.00,0.00,0.00
"USC00501451","1997-05-07",66.02,33.98,0.00,0.00,0.00
"USC00501451","1997-05-08",55.04,37.94,0.00,0.00,0.00
"USC00501451","1997-05-09",60.08,28.04,0.00,0.00,0.00
"USC00501451","1997-05-10",60.98,26.96,8.00,0.00,0.00
"USC00501451","1997-05-11",48.92,35.06,28.00,0.00,0.00
"USC00501451","1997-05-12",57.02,35.06,0.00,0.00,0.00
"USC00501451","1997-05-13",55.04,33.08,89.00,0.00,0.00
"USC00501451","1997-05-14",48.02,37.94,36.00,0.00,0.00
"USC00501451","1997-05-15",42.08,35.06,86.00,0.00,0.00
"USC00501451","1997-05-16",53.96,24.98,0.00,0.00,0.00
"USC00501451","1997-05-17",57.02,33.98,33.00,0.00,0.00
"USC00501451","1997-05-18",51.08,30.02,91.00,0.00,0.00
"USC00501451","1997-05-19",59.00,30.92,0.00,0.00,0.00
"USC00501451","1997-05-20",55.94,33.08,0.00,0.00,0.00
"USC00501451","1997-05-21",62.06,39.02,0.00,0.00,0.00
"USC00501451","1997-05-22",68.00,33.98,0.00,0.00,0.00
"USC00501451","1997-05-23",66.02,32.00,0.00,0.00,0.00
"USC00501451","1997-05-24",66.02,26.06,0.00,0.00,0.00
"USC00501451","1997-05-25",68.00,28.04,0.00,0.00,0.00
"USC00501451","1997-05-26",73.04,30.92,0.00,0.00,0.00
"USC00501451","1997-05-27",75.02,30.02,0.00,0.00,0.00
"USC00501451","1997-05-28",75.92,33.98,0.00,0.00,0.00
"USC00501451","1997-05-29",75.02,33.98,0.00,0.00,0.00
"USC00501451","1997-05-30",68.00,42.98,36.00,0.00,0.00
"USC00501451","1997-05-31",51.08,39.92,58.00,0.00,0.00
"USC00501451","1997-06-01",60.98,26.06,0.00,0.00,0.00
"USC00501451","1997-06-02",55.94,35.96,0.00,0.00,0.00
"USC00501451","1997-06-03",64.04,39.02,0.00,0.00,0.00
"USC00501451","1997-06-04",69.08,35.96,0.00,0.00,0.00
"USC00501451","1997-06-05",73.94,44.96,0.00,0.00,0.00
"USC00501451","1997-06-06",64.04,51.98,3.00,0.00,0.00
"USC00501451","1997-06-07",59.00,48.92,20.00,0.00,0.00
"USC00501451","1997-06-08",50.00,44.96,13.00,0.00,0.00
"USC00501451","1997-06-09",51.98,35.06,15.00,0.00,0.00
"USC00501451","1997-06-10",57.02,41.00,0.00,0.00,0.00
"USC00501451","1997-06-11",57.92,33.98,0.00,0.00,0.00
"USC00501451","1997-06-12",64.94,42.08,61.00,0.00,0.00
"USC00501451","1997-06-13",59.00,46.94,5.00,0.00,0.00
"USC00501451","1997-06-14",57.92,46.04,0.00,0.00,0.00
"USC00501451","1997-06-15",57.02,32.00,0.00,0.00,0.00
"USC00501451","1997-06-16",55.94,35.96,0.00,0.00,0.00
"USC00501451","1997-06-17",57.92,30.02,0.00,0.00,0.00
"USC00501451","1997-06-18",69.08,46.94,0.00,0.00,0.00
"USC00501451","1997-06-19",64.94,51.08,0.00,0.00,0.00
"USC00501451","1997-06-20",62.06,46.94,170.00,0.00,0.00
"USC00501451","1997-06-21",50.00,44.06,10.00,0.00,0.00
"USC00501451","1997-06-22",66.02,48.02,0.00,0.00,0.00
"USC00501451","1997-06-23",75.92,46.04,0.00,0.00,0.00
"USC00501451","1997-06-24",73.94,51.98,0.00,0.00,0.00
"USC00501451","1997-06-25",73.94,46.94,0.00,0.00,0.00
"USC00501451","1997-06-26",78.08,46.94,0.00,0.00,0.00
"USC00501451","1997-06-27",80.06,50.00,0.00,0.00,0.00
"USC00501451","1997-06-28",87.08,48.02,0.00,0.00,0.00
"USC00501451","1997-06-29",87.08,55.04,0.00,0.00,0.00
"USC00501451","1997-06-30",80.06,44.06,0.00,0.00,0.00
"USC00501451","1997-07-01",80.96,46.94,0.00,0.00,0.00
"USC00501451","1997-07-02",80.96,53.96,0.00,0.00,0.00
"USC00501451","1997-07-03",78.98,53.06,0.00,0.00,0.00
"USC00501451","1997-07-04",78.98,48.02,0.00,0.00,0.00
"USC00501451","1997-07-05",75.02,48.02,0.00,0.00,0.00
"USC00501451","1997-07-06",77.00,44.96,0.00,0.00,0.00
"USC00501451","1997-07-07",84.02,51.98,0.00,0.00,0.00
"USC00501451","1997-07-08",75.92,46.04,0.00,0.00,0.00
"USC00501451","1997-07-09",75.02,51.98,0.00,0.00,0.00
"USC00501451","1997-07-10",73.94,53.06,0.00,0.00,0.00
"USC00501451","1997-07-11",73.04,51.98,43.00,0.00,0.00
"USC00501451","1997-07-12",64.94,53.06,53.00,0.00,0.00
"USC00501451","1997-07-13",71.06,51.98,36.00,0.00,0.00
"USC00501451","1997-07-14",64.94,53.06,23.00,0.00,0.00
"USC00501451","1997-07-15",64.04,46.94,61.00,0.00,0.00
"USC00501451","1997-07-16",69.08,42.08,15.00,0.00,0.00
"USC00501451","1997-07-17",73.04,48.02,0.00,0.00,0.00
"USC00501451","1997-07-18",77.00,42.98,0.00,0.00,0.00
"USC00501451","1997-07-19",73.94,44.06,0.00,0.00,0.00
"USC00501451","1997-07-20",,,,0.00,0.00
"USC00501451","1997-07-21",75.92,51.98,,0.00,0.00
"USC00501451","1997-07-22",66.92,46.94,0.00,0.00,0.00
"USC00501451","1997-07-23",60.08,48.92,28.00,0.00,0.00
"USC00501451","1997-07-24",73.94,46.04,0.00,0.00,0.00
"USC00501451","1997-07-25",78.98,51.98,41.00,0.00,0.00
"USC00501451","1997-07-26",77.00,50.00,0.00,0.00,0.00
"USC00501451","1997-07-27",78.98,48.02,0.00,0.00,0.00
"USC00501451","1997-07-28",84.02,48.92,0.00,0.00,0.00
"USC00501451","1997-07-29",84.02,51.08,0.00,0.00,0.00
"USC00501451","1997-07-30",80.96,53.96,0.00,0.00,0.00
"USC00501451","1997-07-31",69.08,55.04,3.00,0.00,0.00
"USC00501451","1997-08-01",71.06,46.04,0.00,0.00,
"USC00501451","1997-08-02",71.96,50.00,5.00,0.00,0.00
"USC00501451","1997-08-03",75.92,37.94,0.00,0.00,0.00
"USC00501451","1997-08-04",73.94,44.06,0.00,0.00,0.00
"USC00501451","1997-08-05",82.94,57.92,0.00,0.00,0.00
"USC00501451","1997-08-06",71.96,55.04,5.00,0.00,0.00
"USC00501451","1997-08-07",64.04,50.00,10.00,0.00,0.00
"USC00501451","1997-08-08",71.06,48.92,10.00,0.00,0.00
"USC00501451","1997-08-09",69.08,51.98,0.00,0.00,0.00
"USC00501451","1997-08-10",66.02,53.06,99.00,0.00,0.00
"USC00501451","1997-08-11",68.00,46.04,107.00,0.00,0.00
"USC00501451","1997-08-12",57.02,48.02,163.00,0.00,0.00
"USC00501451","1997-08-13",64.04,51.98,104.00,0.00,0.00
"USC00501451","1997-08-14",69.08,39.92,0.00,0.00,0.00
"USC00501451","1997-08-15",73.94,37.94,0.00,0.00,0.00
"USC00501451","1997-08-16",64.94,39.92,74.00,0.00,0.00
"USC00501451","1997-08-17",69.98,35.06,0.00,0.00,0.00
"USC00501451","1997-08-18",73.04,35.06,0.00,0.00,0.00
"USC00501451","1997-08-19",71.96,35.06,0.00,0.00,0.00
"USC00501451","1997-08-20",71.96,35.96,0.00,0.00,0.00
"USC00501451","1997-08-21",69.08,39.92,41.00,0.00,0.00
"USC00501451","1997-08-22",55.94,46.04,333.00,0.00,0.00
"USC00501451","1997-08-23",73.04,37.94,0.00,0.00,0.00
"USC00501451","1997-08-24",75.92,33.98,0.00,0.00,0.00
"USC00501451","1997-08-25",73.94,35.06,0.00,0.00,0.00
"USC00501451","1997-08-26",62.06,46.94,297.00,0.00,0.00
"USC00501451","1997-08-27",57.02,37.04,46.00,0.00,0.00
"USC00501451","1997-08-28",69.08,33.08,0.00,0.00,0.00
"USC00501451","1997-08-29",69.08,33.08,0.00,0.00,0.00
"USC00501451","1997-08-30",69.98,35.06,18.00,0.00,0.00
"USC00501451","1997-08-31",62.06,51.98,36.00,0.00,0.00
"USC00501451","1997-09-01",57.92,37.04,353.00,0.00,0.00
"USC00501451","1997-09-02",62.06,28.04,0.00,0.00,0.00
"USC00501451","1997-09-03",68.00,28.04,0.00,0.00,0.00
"USC00501451","1997-09-04",66.92,30.02,0.00,0.00,0.00
"USC00501451","1997-09-05",66.02,37.94,18.00,0.00,0.00
"USC00501451","1997-09-06",64.04,44.96,5.00,0.00,0.00
"USC00501451","1997-09-07",64.94,44.06,0.00,0.00,0.00
"USC00501451","1997-09-08",59.00,44.96,20.00,0.00,0.00
"USC00501451","1997-09-09",57.92,48.02,18.00,0.00,0.00
"USC00501451","1997-09-10",59.00,46.94,51.00,0.00,0.00
"USC00501451","1997-09-11",66.02,37.04,0.00,0.00,0.00
"USC00501451","1997-09-12",73.04,30.92,0.00,0.00,0.00
"USC00501451","1997-09-13",69.98,33.98,0.00,0.00,0.00
"USC00501451","1997-09-14",69.98,26.96,0.00,0.00,0.00
"USC00501451","1997-09-15",66.92,26.96,0.00,0.00,0.00
"USC00501451","1997-09-16",66.02,26.96,0.00,0.00,0.00
"USC00501451","1997-09-17",62.06,33.08,0.00,0.00,0.00
"USC00501451","1997-09-18",50.00,41.00,226.00,0.00,0.00
"USC00501451","1997-09-19",55.94,30.92,15.00,0.00,0.00
"USC00501451","1997-09-20",57.92,30.92,0.00,0.00,0.00
"USC00501451","1997-09-21",53.96,35.96,8.00,0.00,0.00
"USC00501451","1997-09-22",57.92,37.04,33.00,0.00,0.00
"USC00501451","1997-09-23",51.08,39.02,8.00,0.00,0.00
"USC00501451","1997-09-24",53.96,37.94,43.00,0.00,0.00
"USC00501451","1997-09-25",60.98,39.92,20.00,0.00,0.00
"USC00501451","1997-09-26",59.00,24.98,0.00,0.00,0.00
"USC00501451","1997-09-27",53.06,26.96,0.00,0.00,0.00
"USC00501451","1997-09-28",50.00,37.94,33.00,0.00,0.00
"USC00501451","1997-09-29",53.96,23.00,0.00,0.00,0.00
"USC00501451","1997-09-30",42.08,24.08,5.00,0.00,0.00
"USC00501451","1997-10-01",53.96,26.06,0.00,0.00,0.00
"USC00501451","1997-10-02",55.04,17.96,0.00,0.00,0.00
"USC00501451","1997-10-03",53.06,14.00,0.00,0.00,0.00
"USC00501451","1997-10-04",46.04,15.08,0.00,0.00,0.00
"USC00501451","1997-10-05",51.08,15.98,0.00,0.00,0.00
"USC00501451","1997-10-06",48.92,14.00,0.00,0.00,0.00
"USC00501451","1997-10-07",46.94,21.02,0.00,0.00,0.00
"USC00501451","1997-10-08",48.02,12.92,0.00,0.00,0.00